• In Uzbekistan
  • List of Countries
  • For 7 days
  • Water Temperature
  • Satellite Maps
  • Weather Map
  • Weather Widgets
  • user-avatar
    Login

    Hourly Weather Klagenfurt

    Today, 29 June, Thursday

    Time Temperature Precipitation Wind Pressure Humidity
    00:00 +14°C° 1.1 mm 1 mps 679 mmHg 97%
    01:00 +13°C° 0 mm 1 mps 678 mmHg 97%
    02:00 +13°C° 0.1 mm 1 mps 678 mmHg 97%
    03:00 +13°C° 0.1 mm 1 mps 678 mmHg 97%
    04:00 +12°C° 0.1 mm 1 mps 678 mmHg 97%
    05:00 +14°C° 0.1 mm 1 mps 678 mmHg 95%
    06:00 +15°C° 0.1 mm 2 mps 679 mmHg 93%
    07:00 +15°C° 0 mm 2 mps 679 mmHg 91%
    08:00 +17°C° 0.2 mm 2 mps 680 mmHg 83%
    09:00 +18°C° 0.2 mm 3 mps 680 mmHg 75%
    10:00 +19°C° 0.2 mm 3 mps 681 mmHg 67%
    11:00 +20°C° 0.4 mm 4 mps 681 mmHg 65%
    12:00 +20°C° 0.4 mm 4 mps 682 mmHg 63%
    13:00 +21°C° 0.4 mm 4 mps 682 mmHg 61%
    14:00 +21°C° 0.3 mm 4 mps 682 mmHg 60%
    15:00 +21°C° 0.3 mm 4 mps 682 mmHg 59%
    16:00 +21°C° 0.3 mm 4 mps 682 mmHg 58%
    17:00 +20°C° 0.2 mm 4 mps 682 mmHg 63%
    18:00 +19°C° 0.2 mm 3 mps 682 mmHg 68%
    19:00 +18°C° 0.2 mm 2 mps 682 mmHg 73%
    20:00 +16°C° 0.1 mm 2 mps 683 mmHg 77%
    21:00 +15°C° 0.1 mm 2 mps 683 mmHg 81%
    22:00 +14°C° 0.1 mm 2 mps 683 mmHg 85%
    23:00 +13°C° 0 mm 2 mps 683 mmHg 86%

    Tomorrow, 30 June, Friday

    Time Temperature Precipitation Wind Pressure Humidity
    00:00 +13°C° 0 mm 2 mps 683 mmHg 87%
    01:00 +12°C° 0 mm 2 mps 683 mmHg 89%
    02:00 +12°C° 0 mm 2 mps 684 mmHg 90%
    03:00 +11°C° 0 mm 1 mps 684 mmHg 90%
    04:00 +11°C° 0 mm 1 mps 684 mmHg 91%
    05:00 +13°C° 0 mm 2 mps 684 mmHg 86%
    06:00 +15°C° 0 mm 2 mps 685 mmHg 80%
    07:00 +17°C° 0 mm 2 mps 686 mmHg 75%
    08:00 +18°C° 0 mm 3 mps 686 mmHg 66%
    09:00 +19°C° 0 mm 3 mps 687 mmHg 57%
    10:00 +21°C° 0 mm 4 mps 688 mmHg 48%
    11:00 +21°C° 0 mm 4 mps 688 mmHg 47%
    12:00 +21°C° 0 mm 4 mps 688 mmHg 46%
    13:00 +21°C° 0 mm 5 mps 688 mmHg 44%
    14:00 +21°C° 0 mm 4 mps 688 mmHg 47%
    15:00 +20°C° 0 mm 4 mps 688 mmHg 49%
    16:00 +20°C° 0 mm 4 mps 688 mmHg 52%
    17:00 +18°C° 0.1 mm 4 mps 687 mmHg 60%
    18:00 +17°C° 0.1 mm 3 mps 687 mmHg 69%
    19:00 +16°C° 0.1 mm 2 mps 686 mmHg 77%
    20:00 +15°C° 0.1 mm 2 mps 686 mmHg 83%
    21:00 +13°C° 0.1 mm 1 mps 686 mmHg 88%
    22:00 +12°C° 0.1 mm 1 mps 686 mmHg 93%
    23:00 +12°C° 0.4 mm 1 mps 686 mmHg 94%

    Day after tomorrow, 1 July, Saturday

    Time Temperature Precipitation Wind Pressure Humidity
    00:00 +12°C° 0.4 mm 1 mps 686 mmHg 95%
    01:00 +12°C° 0.4 mm 1 mps 685 mmHg 96%
    02:00 +12°C° 0.2 mm 1 mps 685 mmHg 96%
    03:00 +11°C° 0.2 mm 1 mps 685 mmHg 96%
    04:00 +11°C° 0.2 mm 1 mps 685 mmHg 96%
    05:00 +12°C° 0.4 mm 1 mps 685 mmHg 94%
    06:00 +13°C° 0.4 mm 1 mps 686 mmHg 92%
    07:00 +14°C° 0.4 mm 1 mps 687 mmHg 89%
    08:00 +15°C° 0.2 mm 1 mps 687 mmHg 80%
    09:00 +18°C° 0.2 mm 1 mps 688 mmHg 70%
    10:00 +20°C° 0.2 mm 1 mps 689 mmHg 60%
    11:00 +21°C° 0.3 mm 1 mps 689 mmHg 57%
    12:00 +21°C° 0.3 mm 1 mps 689 mmHg 55%
    13:00 +21°C° 0.3 mm 2 mps 689 mmHg 52%
    14:00 +21°C° 0.5 mm 2 mps 689 mmHg 56%
    15:00 +20°C° 0.5 mm 2 mps 689 mmHg 61%
    16:00 +20°C° 0.5 mm 2 mps 689 mmHg 65%
    17:00 +19°C° 0.4 mm 2 mps 688 mmHg 71%
    18:00 +19°C° 0.4 mm 1 mps 688 mmHg 78%
    19:00 +18°C° 0.4 mm 1 mps 688 mmHg 85%
    20:00 +15°C° 0.2 mm 1 mps 688 mmHg 88%
    21:00 +13°C° 0.2 mm 1 mps 688 mmHg 90%
    22:00 +11°C° 0.2 mm 1 mps 688 mmHg 93%
    23:00 +10°C° 0.1 mm 1 mps 688 mmHg 94%

    2 July, Sunday

    Time Temperature Precipitation Wind Pressure Humidity
    00:00 +10°C° 0.1 mm 1 mps 688 mmHg 94%
    01:00 +10°C° 0.1 mm 1 mps 688 mmHg 94%
    02:00 +9°C° 0 mm 1 mps 688 mmHg 94%
    03:00 +9°C° 0 mm 1 mps 688 mmHg 94%
    04:00 +9°C° 0 mm 1 mps 688 mmHg 93%
    05:00 +11°C° 0 mm 1 mps 688 mmHg 88%
    06:00 +13°C° 0 mm 1 mps 689 mmHg 83%
    07:00 +15°C° 0 mm 1 mps 690 mmHg 78%
    08:00 +18°C° 0 mm 1 mps 690 mmHg 68%
    09:00 +20°C° 0 mm 1 mps 690 mmHg 58%
    10:00 +22°C° 0 mm 1 mps 691 mmHg 48%
    11:00 +22°C° 0.3 mm 1 mps 691 mmHg 51%
    12:00 +22°C° 0.3 mm 1 mps 691 mmHg 53%
    13:00 +21°C° 0.3 mm 2 mps 691 mmHg 55%
    14:00 +21°C° 0.3 mm 2 mps 691 mmHg 58%
    15:00 +20°C° 0.3 mm 2 mps 691 mmHg 60%
    16:00 +20°C° 0.3 mm 2 mps 691 mmHg 62%
    17:00 +19°C° 0 mm 2 mps 691 mmHg 65%
    18:00 +19°C° 0 mm 1 mps 691 mmHg 69%
    19:00 +18°C° 0 mm 1 mps 691 mmHg 72%
    20:00 +15°C° 0 mm 1 mps 691 mmHg 76%
    21:00 +13°C° 0 mm 1 mps 691 mmHg 79%
    22:00 +10°C° 0 mm 1 mps 691 mmHg 82%
    23:00 +10°C° 0 mm 1 mps 691 mmHg 83%

    3 July, Monday

    Time Temperature Precipitation Wind Pressure Humidity
    00:00 +9°C° 0 mm 1 mps 691 mmHg 84%
    01:00 +9°C° 0 mm 1 mps 691 mmHg 85%
    02:00 +8°C° 0 mm 1 mps 691 mmHg 86%
    03:00 +8°C° 0 mm 1 mps 691 mmHg 86%
    04:00 +8°C° 0 mm 1 mps 691 mmHg 86%
    05:00 +10°C° 0 mm 1 mps 692 mmHg 79%
    06:00 +13°C° 0 mm 1 mps 693 mmHg 71%
    07:00 +15°C° 0 mm 1 mps 693 mmHg 64%
    08:00 +18°C° 0 mm 1 mps 694 mmHg 59%
    09:00 +18°C° 0 mm 0 mps 694 mmHg 54%
    10:00 +20°C° 0 mm 0 mps 694 mmHg 49%
    11:00 +21°C° 0 mm 0 mps 695 mmHg 47%
    12:00 +25°C° 0 mm 1 mps 695 mmHg 45%
    13:00 +26°C° 0 mm 1 mps 695 mmHg 43%
    14:00 +25°C° 0.1 mm 1 mps 694 mmHg 47%
    15:00 +24°C° 0.1 mm 1 mps 694 mmHg 52%
    16:00 +23°C° 0.1 mm 1 mps 694 mmHg 57%
    17:00 +22°C° 0.1 mm 1 mps 693 mmHg 65%
    18:00 +19°C° 0.1 mm 0 mps 693 mmHg 74%
    19:00 +18°C° 0.1 mm 0 mps 693 mmHg 82%
    20:00 +15°C° 0 mm 0 mps 693 mmHg 85%
    21:00 +13°C° 0 mm 0 mps 693 mmHg 88%
    22:00 +11°C° 0 mm 1 mps 692 mmHg 91%
    23:00 +11°C° 0 mm 1 mps 692 mmHg 91%

    4 July, Tuesday

    Time Temperature Precipitation Wind Pressure Humidity
    00:00 +11°C° 0 mm 1 mps 692 mmHg 92%
    01:00 +10°C° 0 mm 1 mps 692 mmHg 92%
    02:00 +10°C° 0 mm 1 mps 692 mmHg 92%
    03:00 +10°C° 0 mm 1 mps 692 mmHg 92%
    04:00 +10°C° 0 mm 1 mps 692 mmHg 92%
    05:00 +12°C° 0 mm 1 mps 693 mmHg 85%
    06:00 +15°C° 0 mm 1 mps 694 mmHg 78%
    07:00 +18°C° 0 mm 1 mps 694 mmHg 72%
    08:00 +20°C° 0 mm 1 mps 695 mmHg 64%
    09:00 +22°C° 0 mm 1 mps 695 mmHg 57%
    10:00 +24°C° 0 mm 1 mps 695 mmHg 49%
    11:00 +25°C° 0.1 mm 1 mps 695 mmHg 50%
    12:00 +25°C° 0.1 mm 1 mps 695 mmHg 50%
    13:00 +25°C° 0.1 mm 1 mps 694 mmHg 51%
    14:00 +25°C° 0.2 mm 1 mps 694 mmHg 54%
    15:00 +24°C° 0.2 mm 1 mps 694 mmHg 56%
    16:00 +24°C° 0.2 mm 1 mps 694 mmHg 59%
    17:00 +23°C° 0.3 mm 1 mps 693 mmHg 68%
    18:00 +22°C° 0.3 mm 1 mps 693 mmHg 77%
    19:00 +20°C° 0.3 mm 1 mps 693 mmHg 85%
    20:00 +16°C° 0.5 mm 0 mps 693 mmHg 88%
    21:00 +14°C° 0.5 mm 0 mps 692 mmHg 92%
    22:00 +12°C° 0.5 mm 0 mps 692 mmHg 95%
    23:00 +11°C° 0.1 mm 0 mps 692 mmHg 95%
    Show more